sat.trackr.live / text

‹ back to catalog

GPS BIIR-13 (PRN 02)

NORAD 28474 · 2004-045A

PAYLOAD ACTIVE UNKNOWN

§ Identity

Operator
Country
US
Launch date
2004-11-06
Launch site
AFETR
Launch vehicle
Mass (kg)
RCS (m²)
2.51

Purposes: earth_obs, nav

External: N2YO · Heavens-Above · Gunter

§ Orbital elements

Epoch: 2026-09-04T03:50:34.112256Z

Period
717.99 min
Inclination
55.0843°
Eccentricity
0.0171713
Mean motion
2.00559213 rev/d
Perigee alt
19,726.5 km
Apogee alt
20,638.7 km
Semi-major
26,560.7 km
B*
0.0000e+0
RAAN
321.7121°
Arg perigee
318.3045°
Mean anomaly
100.2357°
Rev number
16,001

§ Raw data

GPS BIIR-13 (PRN 02)1 28474U 04045A   26247.16011704 -.00000066  00000+0  00000+0 0  99902 28474  55.0843 321.7121 0171713 318.3045 100.2357  2.00559213160016

JSON: /api/v1/satellites/28474 · /tle

For live sub-satellite position, see the globe view (requires WebGL).

§ Visibility from observer

Set your observer location to see the next 7 days of passes ≥ 10°. The values pass through the URL so the page stays shareable.

No JS? Fill the form by hand. The geolocation button needs JavaScript.